#timestamp,LO_Frequency,Hit,StdDev 
1653472815.4,286046999.9,N
1653472835.3,286047002.8,N
1653472855.1,286047002.7,N
1653472875.8,286047002.3,N
1653472895.7,286047002.0,N
1653472915.5,286047002.8,N
1653472935.4,286047002.0,N
1653472955.2,286047002.7,N
1653472975.1,286047002.8,N
1653472976.0,286047002.8,N
1653472995.8,286046999.7,N
1653473015.6,286047002.7,N
1653473035.5,286047000.3,N
1653473055.3,286047000.7,N
1653473075.1,286047000.8,N
1653473095.9,286046999.9,N
1653473115.7,286047000.2,N
1653473135.6,286047001.2,N
1653473155.4,286047001.1,N
1653473175.2,286046998.5,N
1653473195.1,286046999.6,N
1653473196.0,286046999.6,N
1653473215.8,286046996.8,N
1653473235.6,286046999.5,N
1653473255.5,286046996.6,N
1653473275.3,286046996.6,N
1653473295.2,286046999.1,N
1653473315.0,286046996.5,N
1653473315.9,286046996.5,N
1653473335.7,286046998.9,N
1653473355.6,286046998.9,N
1653473375.4,286046996.6,N
1653473395.3,286046998.9,N
1653473415.1,286046998.4,N
1653473416.0,286046998.4,N
1653473435.8,286047001.1,N
1653473455.7,286047000.7,N
1653473475.5,286046998.5,N
1653473495.4,286046998.4,N
1653473515.2,286046999.4,N
1653473535.0,286046999.6,N
1653473535.9,286046999.6,N
1653473555.8,286046999.5,N
1653473575.6,286046996.7,N
1653473595.5,286046997.4,N
1653473615.3,286046997.0,N
1653473635.1,286046996.6,N
1653473655.9,286046996.8,N
1653473675.7,286046996.5,N
1653473695.6,286046997.5,N
1653473715.4,286046997.4,N
1653473735.2,286046997.4,N
1653473755.1,286046996.7,N
1653473756.0,286046996.7,N
1653473775.8,286046998.0,N
1653473795.7,286046995.4,Y
1653473815.5,286046996.8,P
1653473835.3,286046997.6,P
1653473855.2,286046997.5,P
1653473875.9,286046995.3,Y
1653473895.1,286046998.7,P
1653473915.9,286047001.2,N
1653473935.7,286047000.9,N
1653473955.5,286047000.9,N
1653473975.4,286046998.4,N
1653473995.2,286046998.6,N
1653474015.1,286046999.4,N
1653474016.0,286046999.4,N
1653474035.8,286046999.5,N
1653474055.6,286046998.8,N
1653474075.5,286046998.9,N
1653474095.3,286046998.6,N
1653474115.1,286046998.7,N
1653474135.9,286046999.6,N
1653474155.7,286046999.2,N
1653474175.6,286046999.2,N
1653474195.4,286046998.2,N
1653474215.2,286046999.1,N
1653474235.1,286046996.9,Y
1653474236.0,286046996.9,P
1653474255.8,286046999.5,N
1653474275.6,286046998.3,N
1653474295.5,286047001.1,N
1653474315.3,286047000.6,N
1653474335.2,286047000.5,N
1653474355.9,286047001.0,N
1653474375.7,286046998.2,N
1653474395.6,286047000.7,N
1653474415.4,286047001.0,N
1653474435.2,286046999.5,N
1653474455.1,286046999.3,N
1653474456.0,286046999.3,N
1653474475.8,286047001.0,N
1653474495.7,286047000.3,N
1653474515.5,286047000.6,N
1653474535.3,286047000.2,N
1653474555.2,286046999.8,N
1653474575.0,286047000.6,N
1653474575.9,286047000.6,N
1653474595.8,286047000.4,N
1653474615.6,286047001.2,N
1653474635.4,286046998.8,N
1653474655.3,286046998.4,N
1653474675.1,286047001.2,N
1653474695.8,286047000.7,N
1653474715.7,286046998.7,N
1653474735.5,286047000.6,N
1653474755.4,286047001.1,N
1653474775.2,286047000.8,N
1653474795.0,286047000.9,N
1653474795.9,286047000.9,N
1653474815.8,286046998.2,N
1653474835.6,286047000.2,N
1653474855.5,286047000.3,N
1653474875.3,286047000.0,N
1653474895.1,286047000.4,N
1653474915.9,286047000.4,N
1653474935.7,286047000.6,N
1653474955.5,286047000.9,N
1653474975.4,286046998.9,N
1653474995.2,286047000.9,N
1653475015.1,286046999.3,N
1653475016.0,286046999.3,N
1653475035.8,286046998.6,N
1653475055.6,286046998.9,N
1653475075.5,286046998.7,N
1653475095.3,286047000.7,N
1653475115.2,286047000.7,N
1653475135.9,286046998.3,N
1653475155.7,286046998.6,N
1653475175.6,286046999.2,N
1653475195.4,286046998.7,N
1653475215.2,286046999.0,N
1653475235.1,286046996.5,Y
1653475236.0,286046996.5,P
1653475255.8,286046999.3,N
1653475275.7,286046999.2,N
1653475295.5,286046996.5,N
1653475315.3,286046998.9,N
1653475335.2,286046998.5,N
1653475355.0,286046998.3,N
1653475355.9,286046998.3,N
1653475375.8,286046998.8,N
1653475395.6,286046999.5,N
1653475415.4,286046999.1,N
1653475435.3,286046999.6,N
1653475455.1,286046998.4,N
1653475475.8,286046999.4,N
1653475495.7,286046996.9,Y
1653475515.5,286047000.4,P
1653475535.4,286047000.6,N
1653475555.2,286047000.1,N
1653475575.0,286047002.7,Y
1653475575.9,286047002.7,P
1653475595.8,286047002.1,N
1653475615.6,286047002.6,N
1653475635.5,286047002.2,N
1653475655.3,286047004.4,Y
1653475675.1,286046999.7,P
1653475695.9,286047002.7,N
1653475715.7,286047002.5,N
1653475735.5,286047002.6,N
1653475755.4,286047002.6,N
1653475775.2,286047002.3,N
1653475795.1,286046999.8,N
1653475796.0,286046999.8,N
1653475815.8,286047000.4,N
1653475835.6,286047002.8,N
1653475855.5,286047002.7,N
1653475875.3,286047001.7,N
1653475895.1,286047003.8,Y
1653475915.9,286047002.7,P
1653475935.7,286047001.5,N
1653475955.6,286047002.6,P
1653475975.4,286047002.8,Y
1653475995.2,286046998.2,P
1653476015.1,286046997.2,N
1653476016.0,286046997.2,N
1653476035.8,286046999.6,N
1653476055.7,286046997.3,N
1653476075.5,286046999.5,N
1653476095.3,286046997.4,N
1653476115.2,286046996.8,N
1653476135.0,286046997.3,N
1653476135.9,286046997.3,N
1653476155.7,286046997.6,N
1653476175.6,286046995.1,Y
1653476195.4,286046997.7,P
1653476215.3,286046998.0,P
1653476235.1,286046997.7,P
1653476255.8,286046996.6,Y
1653476275.7,286047000.9,P
1653476295.5,286047000.3,N
1653476315.4,286047000.8,N
1653476335.2,286047000.6,N
1653476355.0,286046999.8,N
1653476355.9,286046999.8,N
1653476375.8,286047002.8,N
1653476395.6,286047002.4,N
